TimeAKDT,TemperatureF,Dew PointF,Humidity,Sea Level PressureIn,VisibilityMPH,Wind Direction,Wind SpeedMPH,Gust SpeedMPH,PrecipitationIn,Events,Conditions,WindDirDegrees,DateUTC
12:53 AM,-9.0,-11.0,91,30.29,10.0,East,8.1,-,N/A,,Overcast,80,2014-03-31 08:53:00
1:35 AM,-11.0,-13.0,91,30.28,10.0,ENE,9.2,-,N/A,,Scattered Clouds,70,2014-03-31 09:35:00
1:53 AM,-11.9,-14.1,90,30.29,10.0,ENE,9.2,-,N/A,,Partly Cloudy,60,2014-03-31 09:53:00
2:53 AM,-13.0,-15.0,91,30.30,10.0,ENE,6.9,-,N/A,,Clear,60,2014-03-31 10:53:00
3:53 AM,-14.1,-16.1,91,30.31,10.0,ENE,9.2,-,N/A,,Clear,70,2014-03-31 11:53:00
4:53 AM,-16.1,-18.0,91,30.30,10.0,ENE,8.1,-,N/A,,Clear,70,2014-03-31 12:53:00
5:53 AM,-17.0,-18.9,91,30.32,10.0,ENE,6.9,-,N/A,,Clear,60,2014-03-31 13:53:00
6:53 AM,-18.0,-20.9,87,30.32,10.0,East,6.9,-,N/A,,Clear,80,2014-03-31 14:53:00
7:53 AM,-18.9,-20.9,91,30.34,10.0,East,8.1,-,N/A,,Clear,90,2014-03-31 15:53:00
8:53 AM,-18.0,-22.0,82,30.35,10.0,ESE,6.9,-,N/A,,Clear,120,2014-03-31 16:53:00
9:53 AM,-16.1,-18.0,91,30.36,10.0,Calm,Calm,-,N/A,,Clear,0,2014-03-31 17:53:00
10:53 AM,-14.1,-17.0,87,30.37,10.0,East,6.9,-,N/A,,Clear,100,2014-03-31 18:53:00
11:53 AM,-11.9,-17.0,78,30.38,10.0,East,6.9,-,N/A,,Clear,80,2014-03-31 19:53:00
12:53 PM,-9.9,-14.1,82,30.38,10.0,East,11.5,-,N/A,,Clear,90,2014-03-31 20:53:00
1:53 PM,-9.0,-13.0,83,30.40,10.0,ESE,8.1,-,N/A,,Clear,120,2014-03-31 21:53:00
2:53 PM,-6.0,-11.0,79,30.40,10.0,SE,5.8,-,N/A,,Clear,130,2014-03-31 22:53:00
3:53 PM,-6.0,-11.0,79,30.41,10.0,ESE,6.9,-,N/A,,Clear,110,2014-03-31 23:53:00
4:53 PM,-5.1,-9.0,83,30.41,10.0,ESE,4.6,-,N/A,,Clear,120,2014-04-01 00:53:00
5:53 PM,-7.1,-9.9,87,30.42,10.0,SSE,5.8,-,N/A,,Clear,150,2014-04-01 01:53:00
6:53 PM,-8.0,-11.9,83,30.42,10.0,SSE,4.6,-,N/A,,Clear,150,2014-04-01 02:53:00
7:53 PM,-9.9,-13.0,86,30.42,10.0,SSE,4.6,-,N/A,,Clear,150,2014-04-01 03:53:00
8:53 PM,-9.9,-13.0,86,30.43,10.0,Calm,Calm,-,N/A,,Clear,0,2014-04-01 04:53:00
9:53 PM,-11.9,-14.1,90,30.43,10.0,East,3.5,-,N/A,,Clear,80,2014-04-01 05:53:00
10:53 PM,-13.0,-15.0,91,30.43,10.0,SSE,3.5,-,N/A,,Clear,160,2014-04-01 06:53:00
11:53 PM,-14.1,-16.1,91,30.42,10.0,South,3.5,-,N/A,,Clear,190,2014-04-01 07:53:00